AVA8391 SKBO-SEGU

Flight info

Callsign AVA8391
Flight time 1h 25m
Altitude 35000
Route VAPOM4R/14R OREGA DCT BOKAN/N0440F350 UP778 QIT/N0440F360 UW9 TEMOX TEMOX2
Aircraft A320/M-SDE3FGHIRWY/LB1

Departure

Time 2026-04-25 02:25
Airport El Dorado International Airport (SKBO)

Arrival

Time 2026-04-25 03:50
Airport José Joaquín de Olmedo International Airport (SEGU)
Time Latitude Longitude Altitude Speed Heading
2026-04-25 01:59 4.70278 -74.15537 8370 ft 9 kts 307°
2026-04-25 01:59 4.70319 -74.15591 8370 ft 10 kts 307°
2026-04-25 01:59 4.70364 -74.15650 8370 ft 11 kts 307°
2026-04-25 01:59 4.70413 -74.15713 8370 ft 12 kts 307°
2026-04-25 02:00 4.70464 -74.15780 8370 ft 12 kts 307°
2026-04-25 02:00 4.70518 -74.15850 8371 ft 13 kts 307°
2026-04-25 02:00 4.70574 -74.15923 8370 ft 14 kts 307°
2026-04-25 02:00 4.70633 -74.16001 8371 ft 14 kts 307°
2026-04-25 02:01 4.70693 -74.16081 8371 ft 15 kts 307°
2026-04-25 02:01 4.70755 -74.16165 8371 ft 15 kts 307°
2026-04-25 02:01 4.70820 -74.16253 8371 ft 16 kts 306°
2026-04-25 02:01 4.70886 -74.16345 8371 ft 16 kts 306°
2026-04-25 02:02 4.70907 -74.16374 8371 ft 4 kts 306°
2026-04-25 02:02 4.70925 -74.16399 8371 ft 5 kts 306°
2026-04-25 02:02 4.70947 -74.16430 8371 ft 6 kts 305°
2026-04-25 02:02 4.70974 -74.16464 8371 ft 7 kts 309°
2026-04-25 02:03 4.71007 -74.16503 8371 ft 8 kts 310°
2026-04-25 02:03 4.71040 -74.16542 8370 ft 4 kts 310°
2026-04-25 02:03 4.71044 -74.16547 8370 ft 0 kts 309°
2026-04-25 02:06 4.71047 -74.16550 8370 ft 0 kts 309°
2026-04-25 02:06 4.71048 -74.16553 8370 ft 2 kts 309°
2026-04-25 02:06 4.71061 -74.16568 8370 ft 3 kts 309°
2026-04-25 02:06 4.71072 -74.16582 8376 ft 3 kts 307°
2026-04-25 02:07 4.71077 -74.16589 8372 ft 0 kts 307°
2026-04-25 02:08 4.71078 -74.16590 8371 ft 2 kts 307°
2026-04-25 02:08 4.71103 -74.16624 8371 ft 7 kts 307°
2026-04-25 02:09 4.71134 -74.16665 8371 ft 1 kts 306°
2026-04-25 02:12 4.71152 -74.16690 8371 ft 13 kts 306°
2026-04-25 02:12 4.71196 -74.16750 8371 ft 0 kts 306°
2026-04-25 02:19 4.71200 -74.16756 8371 ft 2 kts 306°
2026-04-25 02:19 4.71214 -74.16775 8370 ft 6 kts 306°
2026-04-25 02:19 4.71240 -74.16810 8371 ft 7 kts 307°
2026-04-25 02:19 4.71247 -74.16851 8371 ft 6 kts 249°
2026-04-25 02:20 4.71227 -74.16871 8371 ft 0 kts 218°
2026-04-25 02:22 4.71175 -74.16898 8371 ft 16 kts 186°
2026-04-25 02:23 4.71064 -74.16891 8371 ft 16 kts 176°
2026-04-25 02:23 4.71019 -74.16869 8371 ft 5 kts 124°
2026-04-25 02:23 4.71017 -74.16866 8371 ft 0 kts 124°
2026-04-25 02:24 4.70987 -74.16822 8372 ft 34 kts 126°
2026-04-25 02:24 4.70690 -74.16424 8373 ft 105 kts 128°
2026-04-25 02:24 4.70118 -74.15676 8372 ft 163 kts 127°
2026-04-25 02:24 4.69345 -74.14658 8590 ft 190 kts 127°
2026-04-25 02:25 4.68542 -74.13670 9489 ft 183 kts 138°
2026-04-25 02:25 4.67361 -74.13178 9866 ft 196 kts 183°
2026-04-25 02:25 4.66083 -74.13718 10011 ft 213 kts 228°
2026-04-25 02:25 4.65203 -74.14967 10170 ft 233 kts 238°
2026-04-25 02:26 4.64310 -74.16391 10516 ft 246 kts 238°
2026-04-25 02:26 4.63399 -74.17847 11148 ft 247 kts 238°
2026-04-25 02:26 4.62477 -74.19308 11784 ft 249 kts 238°
2026-04-25 02:26 4.61616 -74.20817 12413 ft 250 kts 251°
2026-04-25 02:27 4.61186 -74.22564 12703 ft 270 kts 259°
2026-04-25 02:27 4.60811 -74.24488 12895 ft 293 kts 260°
2026-04-25 02:27 4.60412 -74.26573 13045 ft 316 kts 258°
2026-04-25 02:27 4.59575 -74.28691 13201 ft 338 kts 240°
2026-04-25 02:28 4.58383 -74.30771 13662 ft 348 kts 242°
2026-04-25 02:28 4.57260 -74.32938 14271 ft 352 kts 244°
2026-04-25 02:28 4.56168 -74.35149 14858 ft 355 kts 244°
2026-04-25 02:28 4.55075 -74.37385 15428 ft 359 kts 244°
2026-04-25 02:29 4.53959 -74.39648 15991 ft 362 kts 244°
2026-04-25 02:29 4.52824 -74.41915 16554 ft 366 kts 244°
2026-04-25 02:29 4.51667 -74.44196 17093 ft 369 kts 244°
2026-04-25 02:29 4.50492 -74.46494 17641 ft 372 kts 244°
2026-04-25 02:30 4.49318 -74.48785 18177 ft 375 kts 244°
2026-04-25 02:30 4.48120 -74.51122 18692 ft 378 kts 244°
2026-04-25 02:30 4.46912 -74.53477 19142 ft 381 kts 244°
2026-04-25 02:30 4.45691 -74.55851 19599 ft 384 kts 243°
2026-04-25 02:31 4.44465 -74.58238 19813 ft 386 kts 243°
2026-04-25 02:31 4.43234 -74.60643 20084 ft 388 kts 243°
2026-04-25 02:31 4.42420 -74.62235 20138 ft 389 kts 243°
2026-04-25 02:31 4.41184 -74.64648 20164 ft 388 kts 243°
2026-04-25 02:32 4.39948 -74.67060 20155 ft 388 kts 244°
2026-04-25 02:32 4.38716 -74.69466 20144 ft 388 kts 243°
2026-04-25 02:32 4.37482 -74.71872 20139 ft 388 kts 243°
2026-04-25 02:32 4.36244 -74.74276 20130 ft 388 kts 243°
2026-04-25 02:33 4.35002 -74.76677 20122 ft 388 kts 243°
2026-04-25 02:33 4.33760 -74.79084 20118 ft 388 kts 243°
2026-04-25 02:33 4.32520 -74.81486 20111 ft 388 kts 243°
2026-04-25 02:33 4.31280 -74.83893 20104 ft 388 kts 243°
2026-04-25 02:34 4.30058 -74.86270 20097 ft 388 kts 243°
2026-04-25 02:34 4.28808 -74.88705 20091 ft 388 kts 243°
2026-04-25 02:34 4.27587 -74.91075 20086 ft 388 kts 243°
2026-04-25 02:34 4.26344 -74.93486 20084 ft 388 kts 243°
2026-04-25 02:35 4.25105 -74.95889 20081 ft 388 kts 243°
2026-04-25 02:35 4.23871 -74.98283 20080 ft 388 kts 243°
2026-04-25 02:35 4.22638 -75.00677 20079 ft 387 kts 243°
2026-04-25 02:35 4.21398 -75.03081 20079 ft 388 kts 243°
2026-04-25 02:36 4.20009 -75.05393 20103 ft 389 kts 234°
2026-04-25 02:36 4.18363 -75.07570 20579 ft 392 kts 233°
2026-04-25 02:36 4.16716 -75.09762 21065 ft 395 kts 234°
2026-04-25 02:36 4.15062 -75.11976 21528 ft 398 kts 234°
2026-04-25 02:37 4.13398 -75.14208 21990 ft 401 kts 234°
2026-04-25 02:37 4.11724 -75.16453 22441 ft 405 kts 234°
2026-04-25 02:37 4.10027 -75.18726 22918 ft 408 kts 234°
2026-04-25 02:37 4.08318 -75.21012 23369 ft 412 kts 234°
2026-04-25 02:38 4.06599 -75.23311 23785 ft 415 kts 234°
2026-04-25 02:38 4.04860 -75.25636 24019 ft 417 kts 233°
2026-04-25 02:38 4.03118 -75.27960 24084 ft 417 kts 233°
2026-04-25 02:38 4.01374 -75.30283 24100 ft 417 kts 233°
2026-04-25 02:39 3.99631 -75.32607 24100 ft 417 kts 233°
2026-04-25 02:39 3.97889 -75.34931 24100 ft 417 kts 233°
2026-04-25 02:39 3.96148 -75.37257 24105 ft 417 kts 233°
2026-04-25 02:39 3.94406 -75.39584 24105 ft 417 kts 233°
2026-04-25 02:40 3.92666 -75.41910 24106 ft 417 kts 233°
2026-04-25 02:40 3.90947 -75.44205 24107 ft 417 kts 233°
2026-04-25 02:40 3.89206 -75.46531 24112 ft 418 kts 233°
2026-04-25 02:40 3.87426 -75.48830 24114 ft 418 kts 229°
2026-04-25 02:41 3.85339 -75.50855 24120 ft 418 kts 219°
2026-04-25 02:41 3.83047 -75.52653 24121 ft 419 kts 218°
2026-04-25 02:41 3.80749 -75.54447 24119 ft 419 kts 218°
2026-04-25 02:41 3.78451 -75.56240 24120 ft 419 kts 218°
2026-04-25 02:42 3.76145 -75.58036 24120 ft 419 kts 218°
2026-04-25 02:42 3.73839 -75.59832 24121 ft 419 kts 218°
2026-04-25 02:42 3.71536 -75.61626 24126 ft 419 kts 218°
2026-04-25 02:42 3.69236 -75.63420 24125 ft 419 kts 218°
2026-04-25 02:43 3.66935 -75.65216 24128 ft 419 kts 218°
2026-04-25 02:43 3.64635 -75.67014 24134 ft 419 kts 218°
2026-04-25 02:43 3.62336 -75.68812 24131 ft 419 kts 218°
2026-04-25 02:43 3.60063 -75.70590 24138 ft 419 kts 218°
2026-04-25 02:44 3.57763 -75.72388 24139 ft 419 kts 218°
2026-04-25 02:44 3.55458 -75.74190 24138 ft 419 kts 218°
2026-04-25 02:44 3.53159 -75.75990 24143 ft 419 kts 218°
2026-04-25 02:44 3.50860 -75.77787 24144 ft 419 kts 218°
2026-04-25 02:45 3.48559 -75.79584 24147 ft 419 kts 218°
2026-04-25 02:45 3.46258 -75.81382 24151 ft 420 kts 218°
2026-04-25 02:45 3.43953 -75.83182 24185 ft 422 kts 218°
2026-04-25 02:45 3.41635 -75.84995 24580 ft 424 kts 218°
2026-04-25 02:46 3.39300 -75.86821 24968 ft 426 kts 218°
2026-04-25 02:46 3.36957 -75.88652 25348 ft 428 kts 218°
2026-04-25 02:46 3.34601 -75.90491 25725 ft 431 kts 217°
2026-04-25 02:46 3.32230 -75.92337 26085 ft 433 kts 217°
2026-04-25 02:47 3.29846 -75.94191 26450 ft 435 kts 217°
2026-04-25 02:47 3.27451 -75.96055 26804 ft 437 kts 217°
2026-04-25 02:47 3.25047 -75.97931 27146 ft 439 kts 217°
2026-04-25 02:47 3.22658 -75.99797 27479 ft 441 kts 217°
2026-04-25 02:48 3.20230 -76.01692 27809 ft 444 kts 216°
2026-04-25 02:48 3.17790 -76.03595 28141 ft 446 kts 216°
2026-04-25 02:48 3.15339 -76.05508 28461 ft 448 kts 216°
2026-04-25 02:48 3.12872 -76.07435 28794 ft 450 kts 216°
2026-04-25 02:49 3.10397 -76.09365 29113 ft 452 kts 216°
2026-04-25 02:49 3.07905 -76.11307 29413 ft 454 kts 216°
2026-04-25 02:49 3.05408 -76.13257 29702 ft 456 kts 216°
2026-04-25 02:49 3.02900 -76.15216 29984 ft 458 kts 215°
2026-04-25 02:50 3.00372 -76.17186 30265 ft 461 kts 215°
2026-04-25 02:50 2.97838 -76.19159 30499 ft 462 kts 215°
2026-04-25 02:50 2.95290 -76.21143 30731 ft 464 kts 215°
2026-04-25 02:50 2.92739 -76.23130 30960 ft 465 kts 215°
2026-04-25 02:51 2.90211 -76.25102 31194 ft 467 kts 215°
2026-04-25 02:51 2.87648 -76.27104 31421 ft 468 kts 215°
2026-04-25 02:51 2.85079 -76.29115 31631 ft 469 kts 215°
2026-04-25 02:51 2.82510 -76.31124 31947 ft 468 kts 215°
2026-04-25 02:52 2.79946 -76.33125 32257 ft 467 kts 215°
2026-04-25 02:52 2.77384 -76.35119 32569 ft 466 kts 215°
2026-04-25 02:52 2.74821 -76.37112 32913 ft 465 kts 215°
2026-04-25 02:52 2.72268 -76.39096 33260 ft 464 kts 215°
2026-04-25 02:53 2.69725 -76.41075 33597 ft 463 kts 216°
2026-04-25 02:53 2.67187 -76.43054 33943 ft 462 kts 216°
2026-04-25 02:53 2.64658 -76.45030 34272 ft 461 kts 216°
2026-04-25 02:53 2.62135 -76.47002 34561 ft 460 kts 216°
2026-04-25 02:54 2.59608 -76.48972 34834 ft 459 kts 216°
2026-04-25 02:54 2.57090 -76.50934 35102 ft 459 kts 216°
2026-04-25 02:54 2.54577 -76.52892 35192 ft 459 kts 216°
2026-04-25 02:55 2.49542 -76.56810 35216 ft 458 kts 216°
2026-04-25 02:55 2.44514 -76.60716 35221 ft 458 kts 216°
2026-04-25 02:56 2.39495 -76.64637 35219 ft 458 kts 216°
2026-04-25 02:56 2.34481 -76.68554 35205 ft 458 kts 216°
2026-04-25 02:57 2.29446 -76.72466 35177 ft 458 kts 215°
2026-04-25 02:57 2.24410 -76.76382 35149 ft 459 kts 216°
2026-04-25 02:58 2.19373 -76.80306 35116 ft 459 kts 216°
2026-04-25 02:58 2.14332 -76.84231 35103 ft 459 kts 216°
2026-04-25 02:59 2.09276 -76.88167 35097 ft 460 kts 216°
2026-04-25 02:59 2.04257 -76.92073 35096 ft 460 kts 216°
2026-04-25 03:00 1.99209 -76.96006 35093 ft 460 kts 216°
2026-04-25 03:00 1.94148 -76.99941 35088 ft 460 kts 216°
2026-04-25 03:01 1.89088 -77.03877 35082 ft 460 kts 216°
2026-04-25 03:01 1.84051 -77.07813 35083 ft 461 kts 218°
2026-04-25 03:01 1.81863 -77.10157 35091 ft 465 kts 234°
2026-04-25 03:02 1.80409 -77.13043 35056 ft 467 kts 250°
2026-04-25 03:02 1.79756 -77.16224 34515 ft 468 kts 266°
2026-04-25 03:02 1.79837 -77.19476 33749 ft 471 kts 273°
2026-04-25 03:02 1.80074 -77.22711 33255 ft 473 kts 274°
2026-04-25 03:03 1.80326 -77.26003 33042 ft 477 kts 274°
2026-04-25 03:03 1.80840 -77.32637 33063 ft 479 kts 273°
2026-04-25 03:03 1.80715 -77.35950 33054 ft 477 kts 258°
2026-04-25 03:04 1.79783 -77.39109 33054 ft 474 kts 243°
2026-04-25 03:04 1.78094 -77.41919 33058 ft 470 kts 229°
2026-04-25 03:04 1.75788 -77.44185 33058 ft 465 kts 213°
2026-04-25 03:05 1.70128 -77.47128 33069 ft 462 kts 202°
2026-04-25 03:05 1.67199 -77.48464 33080 ft 462 kts 202°
2026-04-25 03:05 1.61351 -77.51141 33100 ft 462 kts 202°
2026-04-25 03:06 1.55510 -77.53816 33121 ft 462 kts 202°
2026-04-25 03:06 1.49661 -77.56498 33138 ft 462 kts 202°
2026-04-25 03:07 1.43856 -77.59163 33144 ft 462 kts 202°
2026-04-25 03:07 1.38009 -77.61845 33136 ft 462 kts 202°
2026-04-25 03:08 1.32152 -77.64525 33137 ft 462 kts 202°
2026-04-25 03:08 1.26301 -77.67207 33156 ft 463 kts 202°
2026-04-25 03:09 1.20440 -77.69892 33190 ft 463 kts 202°
2026-04-25 03:09 1.14581 -77.72580 33264 ft 463 kts 202°
2026-04-25 03:10 1.08725 -77.75271 33328 ft 463 kts 202°
2026-04-25 03:10 1.02860 -77.77960 33381 ft 463 kts 202°
2026-04-25 03:11 0.97042 -77.80627 33406 ft 463 kts 202°
2026-04-25 03:11 0.91186 -77.83315 33415 ft 463 kts 202°
2026-04-25 03:12 0.85326 -77.85997 33400 ft 463 kts 202°
2026-04-25 03:12 0.79614 -77.88977 33367 ft 466 kts 213°
2026-04-25 03:13 0.74393 -77.92874 33322 ft 468 kts 214°
2026-04-25 03:13 0.69180 -77.96754 33280 ft 468 kts 214°
2026-04-25 03:14 0.63950 -78.00639 33280 ft 468 kts 214°
2026-04-25 03:15 0.48578 -78.12089 33298 ft 468 kts 214°
2026-04-25 03:16 0.43349 -78.15982 33304 ft 468 kts 214°
2026-04-25 03:16 0.38114 -78.19877 33317 ft 469 kts 214°
2026-04-25 03:17 0.32882 -78.23772 33318 ft 469 kts 214°
2026-04-25 03:17 0.27682 -78.27646 33322 ft 469 kts 214°
2026-04-25 03:18 0.22439 -78.31549 33332 ft 470 kts 214°
2026-04-25 03:18 0.17200 -78.35448 33368 ft 470 kts 214°
2026-04-25 03:19 0.11950 -78.39353 33392 ft 470 kts 214°
2026-04-25 03:19 0.06690 -78.43269 33401 ft 471 kts 214°
2026-04-25 03:20 0.01438 -78.47183 33407 ft 471 kts 214°
2026-04-25 03:20 -0.03724 -78.51151 33404 ft 473 kts 220°
2026-04-25 03:21 -0.08190 -78.56021 33402 ft 476 kts 226°
2026-04-25 03:21 -0.12576 -78.60961 33383 ft 475 kts 226°
2026-04-25 03:22 -0.16981 -78.65905 33345 ft 475 kts 226°
2026-04-25 03:22 -0.21372 -78.70846 33311 ft 475 kts 226°
2026-04-25 03:23 -0.25733 -78.75766 33300 ft 476 kts 226°
2026-04-25 03:23 -0.30125 -78.80723 33297 ft 476 kts 226°
2026-04-25 03:24 -0.34517 -78.85681 33293 ft 477 kts 226°
2026-04-25 03:24 -0.38920 -78.90633 33255 ft 475 kts 226°
2026-04-25 03:25 -0.41090 -78.93078 32993 ft 465 kts 226°
2026-04-25 03:25 -0.43206 -78.95469 32739 ft 454 kts 226°
2026-04-25 03:25 -0.45274 -78.97810 32497 ft 445 kts 226°
2026-04-25 03:25 -0.47317 -79.00119 32241 ft 440 kts 226°
2026-04-25 03:26 -0.49343 -79.02402 31991 ft 438 kts 226°
2026-04-25 03:26 -0.51337 -79.04648 31751 ft 436 kts 226°
2026-04-25 03:26 -0.53346 -79.06912 31507 ft 435 kts 226°
2026-04-25 03:26 -0.55346 -79.09166 31264 ft 433 kts 226°
2026-04-25 03:27 -0.57418 -79.11331 31029 ft 429 kts 218°
2026-04-25 03:27 -0.59761 -79.13130 30786 ft 423 kts 209°
2026-04-25 03:27 -0.62335 -79.14558 29890 ft 427 kts 201°
2026-04-25 03:27 -0.65071 -79.15828 28710 ft 440 kts 202°
2026-04-25 03:28 -0.67851 -79.17104 28171 ft 436 kts 202°
2026-04-25 03:28 -0.70586 -79.18362 27735 ft 430 kts 202°
2026-04-25 03:28 -0.73288 -79.19608 27254 ft 426 kts 202°
2026-04-25 03:28 -0.75970 -79.20850 26751 ft 422 kts 203°
2026-04-25 03:29 -0.78625 -79.22081 26263 ft 419 kts 203°
2026-04-25 03:29 -0.81265 -79.23308 25790 ft 416 kts 204°
2026-04-25 03:29 -0.83878 -79.24525 25328 ft 413 kts 204°
2026-04-25 03:29 -0.86474 -79.25735 24873 ft 410 kts 204°
2026-04-25 03:30 -0.89057 -79.26938 24422 ft 407 kts 204°
2026-04-25 03:30 -0.91585 -79.28112 23982 ft 405 kts 205°
2026-04-25 03:30 -0.94131 -79.29293 23508 ft 402 kts 205°
2026-04-25 03:30 -0.96658 -79.30468 23009 ft 399 kts 205°
2026-04-25 03:31 -0.99164 -79.31634 22535 ft 396 kts 205°
2026-04-25 03:31 -1.01654 -79.32792 22081 ft 392 kts 205°
2026-04-25 03:31 -1.04119 -79.33938 21634 ft 389 kts 205°
2026-04-25 03:31 -1.06569 -79.35076 21184 ft 386 kts 205°
2026-04-25 03:32 -1.08179 -79.35822 20901 ft 384 kts 205°
2026-04-25 03:32 -1.10585 -79.36937 20266 ft 377 kts 205°
2026-04-25 03:32 -1.13714 -79.38392 19258 ft 371 kts 205°
2026-04-25 03:32 -1.15287 -79.39126 18763 ft 368 kts 205°
2026-04-25 03:33 -1.17598 -79.40205 17992 ft 363 kts 205°
2026-04-25 03:33 -1.19851 -79.41252 17212 ft 359 kts 205°
2026-04-25 03:33 -1.22101 -79.42294 16461 ft 354 kts 205°
2026-04-25 03:33 -1.24320 -79.43322 15782 ft 348 kts 205°
2026-04-25 03:34 -1.26478 -79.44325 15372 ft 334 kts 205°
2026-04-25 03:34 -1.28547 -79.45287 14986 ft 322 kts 205°
2026-04-25 03:34 -1.30543 -79.46219 14610 ft 311 kts 206°
2026-04-25 03:34 -1.32473 -79.47119 14241 ft 300 kts 206°
2026-04-25 03:35 -1.34334 -79.47985 13891 ft 291 kts 205°
2026-04-25 03:35 -1.36155 -79.48832 13507 ft 288 kts 205°
2026-04-25 03:35 -1.37971 -79.49678 13154 ft 289 kts 205°
2026-04-25 03:35 -1.39791 -79.50526 12792 ft 289 kts 205°
2026-04-25 03:36 -1.41612 -79.51373 12434 ft 289 kts 205°
2026-04-25 03:36 -1.43434 -79.52221 12072 ft 289 kts 205°
2026-04-25 03:36 -1.45258 -79.53068 11699 ft 289 kts 205°
2026-04-25 03:36 -1.47064 -79.53906 11330 ft 290 kts 205°
2026-04-25 03:37 -1.48918 -79.54766 10958 ft 290 kts 205°
2026-04-25 03:37 -1.50731 -79.55607 10578 ft 291 kts 205°
2026-04-25 03:37 -1.52569 -79.56459 10195 ft 291 kts 205°
2026-04-25 03:37 -1.54410 -79.57316 9832 ft 293 kts 205°
2026-04-25 03:38 -1.56269 -79.58179 9476 ft 294 kts 205°
2026-04-25 03:38 -1.58115 -79.59037 9131 ft 293 kts 205°
2026-04-25 03:38 -1.59958 -79.59895 8794 ft 292 kts 205°
2026-04-25 03:38 -1.61794 -79.60750 8454 ft 290 kts 204°
2026-04-25 03:39 -1.63622 -79.61601 8120 ft 289 kts 204°
2026-04-25 03:39 -1.65442 -79.62449 7786 ft 288 kts 204°
2026-04-25 03:39 -1.67254 -79.63293 7460 ft 287 kts 204°
2026-04-25 03:39 -1.69059 -79.64131 7127 ft 285 kts 204°
2026-04-25 03:40 -1.70859 -79.64968 6797 ft 284 kts 204°
2026-04-25 03:40 -1.72651 -79.65802 6473 ft 283 kts 204°
2026-04-25 03:40 -1.74430 -79.66630 6132 ft 281 kts 204°
2026-04-25 03:40 -1.76208 -79.67458 5802 ft 280 kts 204°
2026-04-25 03:41 -1.77971 -79.68278 5474 ft 279 kts 204°
2026-04-25 03:41 -1.79723 -79.69092 5149 ft 278 kts 204°
2026-04-25 03:41 -1.81474 -79.69907 4832 ft 276 kts 204°
2026-04-25 03:41 -1.83210 -79.70715 4500 ft 275 kts 204°
2026-04-25 03:42 -1.84943 -79.71521 4183 ft 274 kts 204°
2026-04-25 03:42 -1.86663 -79.72320 3914 ft 269 kts 204°
2026-04-25 03:42 -1.88307 -79.73085 3836 ft 253 kts 204°
2026-04-25 03:42 -1.89849 -79.73803 3736 ft 240 kts 204°
2026-04-25 03:43 -1.91325 -79.74491 3634 ft 229 kts 204°
2026-04-25 03:43 -1.92751 -79.75155 3531 ft 222 kts 204°
2026-04-25 03:43 -1.94081 -79.75877 3405 ft 213 kts 209°
2026-04-25 03:43 -1.95348 -79.76605 3255 ft 207 kts 209°
2026-04-25 03:44 -1.96575 -79.77310 3103 ft 201 kts 209°
2026-04-25 03:44 -1.97772 -79.77999 2998 ft 193 kts 209°
2026-04-25 03:44 -1.98905 -79.78653 2837 ft 183 kts 209°
2026-04-25 03:44 -1.99975 -79.79271 2703 ft 173 kts 209°
2026-04-25 03:45 -2.00972 -79.79847 2589 ft 161 kts 209°
2026-04-25 03:45 -2.01916 -79.80393 2498 ft 148 kts 208°
2026-04-25 03:45 -2.02774 -79.80887 2400 ft 141 kts 209°
2026-04-25 03:45 -2.03616 -79.81372 2306 ft 138 kts 208°
2026-04-25 03:46 -2.04445 -79.81849 2201 ft 137 kts 209°
2026-04-25 03:46 -2.05271 -79.82324 2119 ft 136 kts 210°
2026-04-25 03:46 -2.06088 -79.82795 2012 ft 136 kts 210°
2026-04-25 03:46 -2.06905 -79.83267 1819 ft 135 kts 211°
2026-04-25 03:47 -2.07711 -79.83731 1650 ft 133 kts 211°
2026-04-25 03:47 -2.08513 -79.84193 1456 ft 133 kts 211°
2026-04-25 03:47 -2.09311 -79.84656 1287 ft 133 kts 211°
2026-04-25 03:47 -2.10107 -79.85121 1135 ft 133 kts 211°
2026-04-25 03:48 -2.10909 -79.85588 960 ft 133 kts 211°
2026-04-25 03:48 -2.11721 -79.86036 795 ft 133 kts 210°
2026-04-25 03:48 -2.12521 -79.86475 593 ft 131 kts 210°
2026-04-25 03:48 -2.13300 -79.86946 371 ft 131 kts 213°
2026-04-25 03:49 -2.14084 -79.87406 213 ft 130 kts 211°
2026-04-25 03:49 -2.14873 -79.87855 68 ft 130 kts 211°
2026-04-25 03:49 -2.15604 -79.88287 26 ft 101 kts 210°
2026-04-25 03:49 -2.16065 -79.88554 28 ft 52 kts 210°
2026-04-25 03:50 -2.16267 -79.88670 29 ft 23 kts 210°
2026-04-25 03:50 -2.16349 -79.88742 28 ft 13 kts 282°
2026-04-25 03:50 -2.16326 -79.88777 28 ft 3 kts 317°
2026-04-25 03:50 -2.16309 -79.88787 28 ft 2 kts 336°
2026-04-25 03:51 -2.16297 -79.88788 28 ft 5 kts 355°
2026-04-25 03:51 -2.16217 -79.88751 29 ft 14 kts 31°
2026-04-25 03:51 -2.16140 -79.88705 29 ft 12 kts 30°
2026-04-25 03:51 -2.16069 -79.88664 29 ft 12 kts 30°
2026-04-25 03:52 -2.16002 -79.88625 28 ft 11 kts 30°
2026-04-25 03:52 -2.15938 -79.88589 28 ft 10 kts 30°
2026-04-25 03:52 -2.15878 -79.88555 29 ft 9 kts 29°
2026-04-25 03:52 -2.15825 -79.88525 29 ft 9 kts 29°
2026-04-25 03:53 -2.15774 -79.88497 28 ft 8 kts 29°
2026-04-25 03:53 -2.15726 -79.88471 28 ft 8 kts 28°
2026-04-25 03:53 -2.15682 -79.88444 28 ft 7 kts 30°
2026-04-25 03:53 -2.15668 -79.88436 28 ft 7 kts 30°
2026-04-25 03:54 -2.15607 -79.88402 28 ft 6 kts 29°
2026-04-25 03:54 -2.15574 -79.88383 28 ft 5 kts 29°
2026-04-25 03:54 -2.15545 -79.88367 28 ft 4 kts 29°
2026-04-25 03:54 -2.15503 -79.88342 28 ft 16 kts 30°
2026-04-25 03:55 -2.15402 -79.88283 28 ft 16 kts 31°
2026-04-25 03:55 -2.15308 -79.88226 28 ft 15 kts 31°
2026-04-25 03:55 -2.15244 -79.88256 28 ft 11 kts 298°
2026-04-25 03:55 -2.15207 -79.88323 29 ft 11 kts 298°
2026-04-25 03:56 -2.15169 -79.88391 29 ft 11 kts 310°
2026-04-25 03:56 -2.15105 -79.88383 29 ft 9 kts 27°
2026-04-25 03:56 -2.15060 -79.88355 29 ft 6 kts 32°
2026-04-25 03:56 -2.15026 -79.88337 29 ft 5 kts 15°
2026-04-25 03:57 -2.14999 -79.88324 29 ft 4 kts 28°
2026-04-25 03:57 -2.14986 -79.88327 29 ft 1 kts 307°
2026-04-25 03:57 -2.14979 -79.88339 29 ft 2 kts 302°
2026-04-25 03:57 -2.14972 -79.88350 29 ft 1 kts 300°
2026-04-25 03:58 -2.14964 -79.88364 29 ft 3 kts 300°
2026-04-25 03:58 -2.14954 -79.88381 29 ft 2 kts 299°
2026-04-25 03:58 -2.14950 -79.88389 29 ft 0 kts 299°